timestamp,surface_pressure_avg,surface_temp_avg,battery_voltage,lat,long
2023-12-16 00:09:00+00:00,296.4064,4.9,11.7,47.84626,-54.09684
2023-12-16 00:19:00+00:00,300.668,4.88,11.7,47.84626,-54.09684
2023-12-16 00:29:00+00:00,308.7764,4.87,11.7,47.84626,-54.09684
2023-12-16 00:39:00+00:00,311.3246,4.8,11.7,47.84626,-54.09684
2023-12-16 00:49:00+00:00,309.988,4.7,11.7,47.84626,-54.09684
2023-12-16 00:59:00+00:00,311.5746,4.62,11.7,47.84626,-54.09684
2023-12-16 01:09:00+00:00,315.2213,4.6,11.7,47.84626,-54.09684
2023-12-16 01:19:00+00:00,319.028,4.6,11.61,47.84626,-54.09684
2023-12-16 01:29:00+00:00,322.3196,4.59,11.61,47.84626,-54.09684
2023-12-16 01:39:00+00:00,325.298,4.59,11.61,47.84626,-54.09684
2023-12-16 01:49:00+00:00,325.7147,4.6,11.61,47.84626,-54.09684
2023-12-16 01:59:00+00:00,319.493,4.6,11.61,47.84626,-54.09684
2023-12-16 02:09:00+00:00,319.1196,4.58,11.61,47.84626,-54.09684
2023-12-16 02:19:01+00:00,321.153,4.6,11.61,47.84626,-54.09684
2023-12-16 02:29:01+00:00,317.1047,4.5,11.61,47.84626,-54.09684
2023-12-16 02:39:01+00:00,311.3614,4.5,11.61,47.84626,-54.09684
2023-12-16 02:49:01+00:00,317.593,4.68,11.61,47.84626,-54.09684
2023-12-16 02:59:01+00:00,319.313,4.7,11.61,47.84626,-54.09684
2023-12-16 03:09:01+00:00,315.2913,4.6,11.61,47.84626,-54.09684
2023-12-16 03:19:00+00:00,313.5763,4.6,11.61,47.84626,-54.09684
2023-12-16 03:29:00+00:00,314.733,4.6,11.61,47.84626,-54.09684
2023-12-16 03:39:00+00:00,304.4713,4.6,11.61,47.84626,-54.09684
2023-12-16 03:49:00+00:00,294.9314,4.67,11.61,47.84626,-54.09684
2023-12-16 03:59:00+00:00,293.2213,4.67,11.61,47.84626,-54.09684
2023-12-16 04:09:00+00:00,288.9597,4.7,11.61,47.84626,-54.09684
2023-12-16 04:19:00+00:00,272.0531,4.67,11.61,47.84626,-54.09684
2023-12-16 04:29:00+00:00,258.0581,4.6,11.61,47.84626,-54.09684
2023-12-16 04:39:00+00:00,255.4598,4.6,11.61,47.84626,-54.09684
2023-12-16 04:49:00+00:00,246.8597,4.6,11.61,47.84626,-54.09684
2023-12-16 04:59:00+00:00,230.0264,4.6,11.61,47.84626,-54.09684
2023-12-16 05:09:00+00:00,223.4615,4.6,11.61,47.84626,-54.09684
2023-12-16 05:19:00+00:00,221.0531,4.6,11.61,47.84626,-54.09684
2023-12-16 05:29:00+00:00,212.7297,4.4,11.61,47.84626,-54.09684
2023-12-16 05:39:00+00:00,206.3998,4.38,11.61,47.84626,-54.09684
2023-12-16 05:49:00+00:00,203.4398,4.3,11.61,47.84626,-54.09684
2023-12-16 05:59:00+00:00,193.7498,4.28,11.61,47.84626,-54.09684
2023-12-16 06:09:00+00:00,189.2581,4.2,11.61,47.84626,-54.09684
2023-12-16 06:19:00+00:00,193.5581,4.2,11.61,47.84626,-54.09684
2023-12-16 06:29:00+00:00,191.5331,4.2,11.61,47.84626,-54.09684
2023-12-16 06:39:00+00:00,184.0098,4.2,11.61,47.84626,-54.09684
2023-12-16 06:49:00+00:00,184.4465,4.2,11.61,47.84626,-54.09684
2023-12-16 06:59:00+00:00,186.7931,4.27,11.61,47.84626,-54.09684
2023-12-16 07:09:00+00:00,184.9265,4.3,11.61,47.84626,-54.09684
2023-12-16 07:19:00+00:00,184.7748,4.3,11.53,47.84626,-54.09684
2023-12-16 07:29:00+00:00,188.0248,4.39,11.53,47.84626,-54.09684
2023-12-16 07:39:00+00:00,190.5631,4.4,11.53,47.84626,-54.09684
2023-12-16 07:49:00+00:00,186.0614,4.42,11.53,47.84626,-54.09684
2023-12-16 07:59:00+00:00,190.0348,4.5,11.53,47.84626,-54.09684
2023-12-16 08:09:00+00:00,198.8881,4.6,11.53,47.84626,-54.09684
2023-12-16 08:19:00+00:00,202.1198,4.69,11.53,47.84626,-54.09684
2023-12-16 08:29:00+00:00,204.1765,4.7,11.53,47.84626,-54.09684
2023-12-16 08:39:00+00:00,205.9981,4.6,11.53,47.84626,-54.09684
2023-12-16 08:49:00+00:00,211.3181,4.67,11.53,47.84626,-54.09684
2023-12-16 08:59:00+00:00,217.5381,4.6,11.53,47.84626,-54.09684
2023-12-16 09:09:00+00:00,224.2631,4.6,11.53,47.84626,-54.09684
2023-12-16 09:19:00+00:00,229.2431,4.6,11.53,47.84626,-54.09684
2023-12-16 09:29:00+00:00,233.7298,4.62,11.53,47.84626,-54.09684
2023-12-16 09:39:00+00:00,239.7164,4.68,11.53,47.84626,-54.09684
2023-12-16 09:49:00+00:00,246.1848,4.7,11.53,47.84626,-54.09684
2023-12-16 09:59:00+00:00,251.4798,4.7,11.53,47.84626,-54.09684
2023-12-16 10:09:00+00:00,258.0481,4.71,11.53,47.84626,-54.09684
2023-12-16 10:19:00+00:00,266.4931,4.8,11.53,47.84626,-54.09684
2023-12-16 10:29:00+00:00,270.4564,4.8,11.53,47.84626,-54.09684
2023-12-16 10:39:00+00:00,275.3047,4.88,11.53,47.84626,-54.09684
2023-12-16 10:49:00+00:00,283.7147,5.09,11.53,47.84626,-54.09684
2023-12-16 10:59:00+00:00,294.8981,5.08,11.53,47.84626,-54.09684
2023-12-16 11:09:00+00:00,298.8331,5.1,11.53,47.84626,-54.09684
2023-12-16 11:19:00+00:00,304.2997,5.1,11.53,47.84626,-54.09684
2023-12-16 11:29:00+00:00,318.4197,5.09,11.53,47.84626,-54.09684
2023-12-16 11:39:00+00:00,331.0347,5.09,11.53,47.84626,-54.09684
2023-12-16 11:49:00+00:00,335.0397,5.12,11.53,47.84626,-54.09684
2023-12-16 11:59:00+00:00,343.8412,5.15,11.53,47.84626,-54.09684
2023-12-16 12:09:00+00:00,355.1912,5.1,11.53,47.84626,-54.09684
2023-12-16 12:19:00+00:00,361.1196,5.1,11.53,47.84626,-54.09684
2023-12-16 12:29:00+00:00,364.6913,5.1,11.53,47.84626,-54.09684
2023-12-16 12:39:00+00:00,371.8079,5.05,11.53,47.84626,-54.09684
2023-12-16 12:49:00+00:00,381.1696,5.04,11.53,47.84626,-54.09684
2023-12-16 12:59:00+00:00,382.7762,5.06,11.53,47.84626,-54.09684
2023-12-16 13:09:00+00:00,383.5762,5.04,11.53,47.84626,-54.09684
2023-12-16 13:19:00+00:00,393.9279,5.06,11.53,47.84626,-54.09684
2023-12-16 13:29:00+00:00,402.9329,5.06,11.53,47.84626,-54.09684
2023-12-16 13:39:00+00:00,399.6362,5.07,11.53,47.84626,-54.09684
2023-12-16 13:49:00+00:00,400.8578,5.08,11.53,47.84626,-54.09684
2023-12-16 13:59:00+00:00,409.0212,5.0,11.53,47.84626,-54.09684
2023-12-16 14:09:00+00:00,406.5045,5.0,11.53,47.84626,-54.09684
2023-12-16 14:19:00+00:00,402.2979,5.0,12.01,47.84626,-54.09684
2023-12-16 14:29:00+00:00,409.6597,5.1,12.01,47.84626,-54.09684
2023-12-16 14:39:00+00:00,410.6995,5.1,12.01,47.84626,-54.09684
2023-12-16 14:49:00+00:00,402.2728,5.14,12.01,47.84626,-54.09684
2023-12-16 14:59:00+00:00,401.7795,5.2,12.01,47.84626,-54.09684
2023-12-16 15:09:00+00:00,406.2996,5.2,12.01,47.84626,-54.09684
2023-12-16 15:19:00+00:00,397.5413,5.2,12.09,47.84626,-54.09684
2023-12-16 15:29:00+00:00,388.3262,5.2,12.09,47.84626,-54.09684
2023-12-16 15:39:00+00:00,392.4429,5.2,12.09,47.84626,-54.09684
2023-12-16 15:49:00+00:00,390.2679,5.2,12.09,47.84626,-54.09684
2023-12-16 15:59:00+00:00,375.8929,5.19,12.09,47.84626,-54.09684
2023-12-16 16:09:00+00:00,370.9229,5.11,12.09,47.84626,-54.09684
2023-12-16 16:19:00+00:00,373.723,5.16,11.86,47.84626,-54.09684
2023-12-16 16:29:00+00:00,361.8996,5.1,11.86,47.84626,-54.09684
2023-12-16 16:39:00+00:00,344.4029,5.0,11.86,47.84626,-54.09684
2023-12-16 16:49:00+00:00,339.9329,5.0,11.86,47.84626,-54.09684
2023-12-16 16:59:00+00:00,331.8862,5.01,11.86,47.84626,-54.09684
2023-12-16 17:09:00+00:00,316.2897,5.0,11.86,47.84626,-54.09684
2023-12-16 17:19:00+00:00,308.7597,5.0,11.86,47.84626,-54.09684
2023-12-16 17:29:00+00:00,304.0764,5.0,11.86,47.84626,-54.09684
2023-12-16 17:39:00+00:00,289.7314,4.97,11.86,47.84626,-54.09684
2023-12-16 17:49:00+00:00,274.8814,5.0,11.86,47.84626,-54.09684
2023-12-16 17:59:00+00:00,266.463,5.0,11.86,47.84626,-54.09684
2023-12-16 18:09:00+00:00,260.0647,4.8,11.86,47.84626,-54.09684
2023-12-16 18:19:00+00:00,247.4364,4.6,11.86,47.84626,-54.09684
2023-12-16 18:29:00+00:00,236.7981,4.4,11.86,47.84626,-54.09684
2023-12-16 18:39:00+00:00,229.5564,4.4,11.86,47.84626,-54.09684
2023-12-16 18:49:00+00:00,221.3631,4.4,11.86,47.84626,-54.09684
2023-12-16 18:59:00+00:00,210.7681,4.4,11.86,47.84626,-54.09684
2023-12-16 19:09:00+00:00,207.9081,4.46,11.86,47.84626,-54.09684
2023-12-16 19:19:00+00:00,205.4248,4.5,11.77,47.84626,-54.09684
2023-12-16 19:29:00+00:00,200.3581,4.6,11.77,47.84626,-54.09684
2023-12-16 19:39:00+00:00,195.4998,4.6,11.77,47.84626,-54.09684
2023-12-16 19:49:00+00:00,193.4981,4.6,11.77,47.84626,-54.09684
2023-12-16 19:59:00+00:00,192.1215,4.55,11.77,47.84626,-54.09684
2023-12-16 20:09:00+00:00,192.3081,4.73,11.77,47.84626,-54.09684
2023-12-16 20:19:00+00:00,194.6681,4.72,11.77,47.84626,-54.09684
2023-12-16 20:29:00+00:00,194.5465,4.73,11.77,47.84626,-54.09684
2023-12-16 20:39:00+00:00,195.7248,4.88,11.77,47.84626,-54.09684
2023-12-16 20:49:00+00:00,201.0498,5.09,11.77,47.84626,-54.09684
2023-12-16 20:59:00+00:00,206.8281,5.0,11.77,47.84626,-54.09684
2023-12-16 21:09:00+00:00,206.3448,4.9,11.77,47.84626,-54.09684
2023-12-16 21:19:00+00:00,207.6148,4.87,11.7,47.84626,-54.09684
2023-12-16 21:29:00+00:00,215.5648,4.81,11.7,47.84626,-54.09684
2023-12-16 21:39:00+00:00,217.6998,4.8,11.7,47.84626,-54.09684
2023-12-16 21:49:00+00:00,217.7181,4.8,11.7,47.84626,-54.09684
2023-12-16 21:59:00+00:00,224.4348,4.7,11.7,47.84626,-54.09684
2023-12-16 22:09:00+00:00,228.8147,4.6,11.7,47.84626,-54.09684
2023-12-16 22:19:00+00:00,228.6481,4.68,11.7,47.84626,-54.09684
2023-12-16 22:29:00+00:00,230.2614,4.77,11.7,47.84626,-54.09684
2023-12-16 22:39:00+00:00,235.1815,4.86,11.7,47.84626,-54.09684
2023-12-16 22:49:00+00:00,238.6998,4.9,11.7,47.84626,-54.09684
2023-12-16 22:59:00+00:00,241.2531,4.9,11.7,47.84626,-54.09684
2023-12-16 23:09:00+00:00,243.4664,4.76,11.7,47.84626,-54.09684
2023-12-16 23:19:00+00:00,246.2247,4.5,11.7,47.84626,-54.09684
2023-12-16 23:29:00+00:00,250.3331,4.66,11.7,47.84626,-54.09684
2023-12-16 23:39:00+00:00,254.6248,4.98,11.7,47.84626,-54.09684
2023-12-16 23:49:00+00:00,252.9031,5.0,11.7,47.84626,-54.09684
2023-12-16 23:59:00+00:00,255.2697,5.02,11.7,47.84626,-54.09684
